2015-12-23 00:02:01 r, 16.30m,0000000026Hz,0000018265c,0000000.040s, 010.3C,00002191
2015-12-23 00:12:01 r, 16.29m,0000000026Hz,0000018067c,0000000.039s, 010.3C,00002191
2015-12-23 00:22:01 r, 16.30m,0000000025Hz,0000018277c,0000000.040s, 010.3C,00002191
2015-12-23 00:32:01 r, 16.20m,0000000028Hz,0000016579c,0000000.036s, 009.9C,00002191
2015-12-23 00:42:01 r, 16.21m,0000000028Hz,0000016721c,0000000.036s, 009.9C,00002191
2015-12-23 00:52:01 r, 16.26m,0000000026Hz,0000017566c,0000000.038s, 009.9C,00002191
2015-12-23 01:02:01 r, 16.32m,0000000025Hz,0000018510c,0000000.040s, 009.9C,00002191
2015-12-23 01:12:01 r, 16.32m,0000000024Hz,0000018644c,0000000.040s, 009.9C,00002191
2015-12-23 01:22:02 r, 16.39m,0000000023Hz,0000019715c,0000000.043s, 009.9C,00002191
2015-12-23 01:32:01 r, 16.44m,0000000023Hz,0000020846c,0000000.045s, 009.9C,00002191
2015-12-23 01:42:01 r, 16.49m,0000000022Hz,0000021681c,0000000.047s, 009.9C,00002191
2015-12-23 01:52:03 r, 16.42m,0000000023Hz,0000020318c,0000000.044s, 009.9C,00002191
2015-12-23 02:02:01 r, 16.40m,0000000023Hz,0000019890c,0000000.043s, 009.9C,00002191
2015-12-23 02:12:01 r, 16.43m,0000000022Hz,0000020481c,0000000.044s, 009.9C,00002191
2015-12-23 02:22:02 r, 16.53m,0000000020Hz,0000022401c,0000000.049s, 009.9C,00002191
2015-12-23 02:32:01 r, 16.56m,0000000020Hz,0000022949c,0000000.050s, 009.9C,00002191
2015-12-23 02:42:01 r, 16.59m,0000000019Hz,0000023792c,0000000.052s, 009.9C,00002191
2015-12-23 02:52:02 r, 16.62m,0000000019Hz,0000024393c,0000000.053s, 009.9C,00002191
2015-12-23 03:02:01 r, 16.64m,0000000018Hz,0000024720c,0000000.054s, 009.9C,00002191
2015-12-23 03:12:01 r, 16.77m,0000000016Hz,0000028052c,0000000.061s, 009.9C,00002191
2015-12-23 03:22:01 r, 16.81m,0000000016Hz,0000029097c,0000000.063s, 009.9C,00002191
2015-12-23 03:32:01 r, 16.97m,0000000014Hz,0000033583c,0000000.073s, 009.9C,00002191
2015-12-23 03:42:01 r, 16.99m,0000000013Hz,0000034402c,0000000.075s, 009.9C,00002191
2015-12-23 03:52:02 r, 16.96m,0000000014Hz,0000033443c,0000000.073s, 009.9C,00002191
2015-12-23 04:02:01 r, 17.02m,0000000013Hz,0000035411c,0000000.077s, 009.9C,00002191
2015-12-23 04:12:01 r, 17.01m,0000000013Hz,0000034970c,0000000.076s, 009.9C,00002191
2015-12-23 04:22:03 r, 17.05m,0000000012Hz,0000036454c,0000000.079s, 009.9C,00002191
2015-12-23 04:32:01 r, 17.28m,0000000010Hz,0000045003c,0000000.098s, 009.9C,00002191
2015-12-23 04:42:01 r, 17.63m,0000000008Hz,0000061400c,0000000.133s, 009.9C,00002191
2015-12-23 04:52:01 r, 17.97m,0000000006Hz,0000084360c,0000000.183s, 009.9C,00002191
2015-12-23 05:02:01 r, 17.97m,0000000005Hz,0000084359c,0000000.183s, 009.9C,00002191
2015-12-23 05:12:01 r, 17.95m,0000000006Hz,0000082640c,0000000.179s, 009.9C,00002191
2015-12-23 05:22:01 r, 17.85m,0000000006Hz,0000075741c,0000000.164s, 009.9C,00002191
2015-12-23 05:32:01 r, 17.74m,0000000007Hz,0000068185c,0000000.148s, 009.9C,00002191
2015-12-23 05:42:01 r, 17.83m,0000000006Hz,0000073795c,0000000.160s, 009.6C,00002191
2015-12-23 05:52:03 r, 17.71m,0000000007Hz,0000066236c,0000000.144s, 009.6C,00002191
2015-12-23 06:02:01 r, 17.60m,0000000007Hz,0000059425c,0000000.129s, 009.6C,00002191
2015-12-23 06:12:01 r, 17.52m,0000000008Hz,0000055384c,0000000.120s, 009.6C,00002191
2015-12-23 06:22:02 r, 17.44m,0000000009Hz,0000051570c,0000000.112s, 009.6C,00002191
2015-12-23 06:32:01 r, 17.30m,0000000010Hz,0000045119c,0000000.098s, 009.6C,00002191
2015-12-23 06:42:01 r, 17.39m,0000000010Hz,0000049354c,0000000.107s, 009.6C,00002191
2015-12-23 06:52:01 r, 17.39m,0000000009Hz,0000049153c,0000000.107s, 009.3C,00002191
2015-12-23 07:02:01 r, 17.38m,0000000010Hz,0000048755c,0000000.106s, 009.3C,00002191
2015-12-23 07:12:01 r, 17.16m,0000000011Hz,0000039895c,0000000.087s, 009.3C,00002191
2015-12-23 07:22:02 r, 16.52m,0000000021Hz,0000022234c,0000000.048s, 009.3C,00002191
2015-12-23 07:32:01 r, 15.22m,0000000069Hz,0000006702c,0000000.015s, 009.3C,00002191
2015-12-23 07:42:01 r, 13.65m,0000000293Hz,0000000000c,0000000.000s, 009.3C,00002191
2015-12-23 07:52:01 r, 11.92m,0000001447Hz,0000000000c,0000000.000s, 009.0C,00002191
2015-12-23 08:02:01 r, 10.04m,0000008128Hz,0000000000c,0000000.000s, 009.0C,00002191
2015-12-23 08:12:01 r, 08.56m,0000031866Hz,0000000000c,0000000.000s, 009.0C,00002191
2015-12-23 08:22:01 r, 07.40m,0000092838Hz,0000000000c,0000000.000s, 009.0C,00002191
2015-12-23 08:32:01 r, 06.56m,0000201724Hz,0000000000c,0000000.000s, 009.0C,00002191
2015-12-23 08:42:01 r, 06.17m,0000288903Hz,0000000000c,0000000.000s, 009.0C,00002191
2015-12-23 08:52:01 r, 00.00m,0000482644Hz,0000000000c,0000000.000s, 009.0C,00002191
2015-12-23 09:02:01 r, 00.00m,0000597059Hz,0000000000c,0000000.000s, 009.6C,00002191
2015-12-23 09:12:01 r, 00.00m,0000597171Hz,0000000000c,0000000.000s, 009.3C,00002191
2015-12-23 09:22:01 r, 00.00m,0000597025Hz,0000000000c,0000000.000s, 009.9C,00002191
2015-12-23 09:32:01 r, 00.00m,0000597036Hz,0000000000c,0000000.000s, 009.9C,00002191
2015-12-23 09:42:01 r, 00.00m,0000596950Hz,0000000000c,0000000.000s, 010.3C,00002191
2015-12-23 09:52:01 r, 00.00m,0000597062Hz,0000000000c,0000000.000s, 010.3C,00002191
2015-12-23 10:02:01 r, 00.00m,0000596900Hz,0000000000c,0000000.000s, 010.6C,00002191
2015-12-23 10:12:01 r, 00.00m,0000597003Hz,0000000000c,0000000.000s, 010.9C,00002191
2015-12-23 10:22:01 r, 00.00m,0000596991Hz,0000000000c,0000000.000s, 011.2C,00002191
2015-12-23 10:32:01 r, 00.00m,0000596991Hz,0000000000c,0000000.000s, 011.2C,00002191
2015-12-23 10:42:01 r, 00.00m,0000596903Hz,0000000000c,0000000.000s, 011.6C,00002191
2015-12-23 10:52:01 r, 00.00m,0000596945Hz,0000000000c,0000000.000s, 011.9C,00002191
2015-12-23 11:02:01 r, 00.00m,0000596842Hz,0000000000c,0000000.000s, 012.2C,00002191
2015-12-23 11:12:01 r, 00.00m,0000596904Hz,0000000000c,0000000.000s, 012.5C,00002191
2015-12-23 11:22:01 r, 00.00m,0000596819Hz,0000000000c,0000000.000s, 012.2C,00002191
2015-12-23 11:32:01 r, 00.00m,0000596731Hz,0000000000c,0000000.000s, 012.5C,00002191
2015-12-23 11:42:01 r, 00.00m,0000596767Hz,0000000000c,0000000.000s, 012.5C,00002191
2015-12-23 11:52:01 r, 00.00m,0000596797Hz,0000000000c,0000000.000s, 012.8C,00002191
2015-12-23 12:02:03 r, 00.00m,0000596767Hz,0000000000c,0000000.000s, 012.8C,00002191
2015-12-23 12:12:01 r, 00.00m,0000596687Hz,0000000000c,0000000.000s, 012.8C,00002191
2015-12-23 12:22:01 r, 00.00m,0000596709Hz,0000000000c,0000000.000s, 012.8C,00002191
2015-12-23 12:32:02 r, 00.00m,0000596838Hz,0000000000c,0000000.000s, 012.8C,00002191
2015-12-23 12:42:01 r, 00.00m,0000596835Hz,0000000000c,0000000.000s, 012.8C,00002191
2015-12-23 12:52:01 r, 00.00m,0000596784Hz,0000000000c,0000000.000s, 012.8C,00002191
2015-12-23 13:02:02 r, 00.00m,0000596870Hz,0000000000c,0000000.000s, 012.5C,00002191
2015-12-23 13:12:01 r, 00.00m,0000596837Hz,0000000000c,0000000.000s, 012.5C,00002191
2015-12-23 13:22:01 r, 00.00m,0000596833Hz,0000000000c,0000000.000s, 012.2C,00002191
2015-12-23 13:32:02 r, 00.00m,0000596893Hz,0000000000c,0000000.000s, 012.2C,00002191
2015-12-23 13:42:01 r, 00.00m,0000596847Hz,0000000000c,0000000.000s, 012.2C,00002191
2015-12-23 13:52:01 r, 00.00m,0000596896Hz,0000000000c,0000000.000s, 012.2C,00002191
2015-12-23 14:02:01 r, 00.00m,0000596921Hz,0000000000c,0000000.000s, 011.9C,00002191
2015-12-23 14:12:01 r, 00.00m,0000596932Hz,0000000000c,0000000.000s, 011.9C,00002191
2015-12-23 14:22:01 r, 00.00m,0000596900Hz,0000000000c,0000000.000s, 011.6C,00002191
2015-12-23 14:32:01 r, 00.00m,0000596830Hz,0000000000c,0000000.000s, 011.6C,00002191
2015-12-23 14:42:01 r, 00.00m,0000596871Hz,0000000000c,0000000.000s, 011.2C,00002191
2015-12-23 14:52:01 r, 00.00m,0000597000Hz,0000000000c,0000000.000s, 010.9C,00002191
2015-12-23 15:02:01 r, 00.00m,0000596997Hz,0000000000c,0000000.000s, 010.9C,00002191
2015-12-23 15:12:01 r, 00.00m,0000596957Hz,0000000000c,0000000.000s, 010.6C,00002191
2015-12-23 15:22:01 r, 00.00m,0000596970Hz,0000000000c,0000000.000s, 010.6C,00002191
2015-12-23 15:32:01 r, 00.00m,0000597019Hz,0000000000c,0000000.000s, 010.6C,00002191
2015-12-23 15:42:01 r, 00.00m,0000597033Hz,0000000000c,0000000.000s, 010.3C,00002191
2015-12-23 15:52:01 r, 00.00m,0000597049Hz,0000000000c,0000000.000s, 010.3C,00002191
2015-12-23 16:02:01 r, 00.00m,0000597035Hz,0000000000c,0000000.000s, 009.9C,00002191
2015-12-23 16:12:01 r, 00.00m,0000597158Hz,0000000000c,0000000.000s, 009.6C,00002191
2015-12-23 16:22:01 r, 06.06m,0000320721Hz,0000000000c,0000000.000s, 009.3C,00002191
2015-12-23 16:32:03 r, 06.90m,0000147101Hz,0000000000c,0000000.000s, 009.0C,00002191
2015-12-23 16:42:01 r, 08.02m,0000052553Hz,0000000000c,0000000.000s, 008.7C,00002191
2015-12-23 16:52:01 r, 09.43m,0000014313Hz,0000000000c,0000000.000s, 008.7C,00002191
2015-12-23 17:02:01 r, 11.14m,0000002949Hz,0000000000c,0000000.000s, 008.3C,00002191
2015-12-23 17:12:01 r, 12.94m,0000000564Hz,0000000000c,0000000.000s, 008.3C,00002191
2015-12-23 17:22:01 r, 14.49m,0000000135Hz,0000000000c,0000000.000s, 008.0C,00002191
2015-12-23 17:32:02 r, 15.84m,0000000039Hz,0000011932c,0000000.026s, 007.7C,00002191
2015-12-23 17:42:01 r, 16.68m,0000000018Hz,0000025707c,0000000.056s, 007.4C,00002191
2015-12-23 17:52:01 r, 17.23m,0000000011Hz,0000042774c,0000000.093s, 007.0C,00002191
2015-12-23 18:02:01 r, 17.54m,0000000008Hz,0000056606c,0000000.123s, 007.0C,00002191
2015-12-23 18:12:01 r, 17.46m,0000000009Hz,0000052813c,0000000.115s, 006.7C,00002191
2015-12-23 18:22:01 r, 17.20m,0000000011Hz,0000041791c,0000000.091s, 006.4C,00002191
2015-12-23 18:32:02 r, 17.34m,0000000009Hz,0000047453c,0000000.103s, 006.4C,00002191
2015-12-23 18:42:01 r, 17.36m,0000000009Hz,0000048040c,0000000.104s, 006.4C,00002191
2015-12-23 18:52:01 r, 17.01m,0000000013Hz,0000035316c,0000000.077s, 006.4C,00002191
2015-12-23 19:02:01 r, 16.87m,0000000016Hz,0000030644c,0000000.067s, 006.4C,00002191
2015-12-23 19:12:01 r, 16.73m,0000000017Hz,0000026964c,0000000.059s, 006.4C,00002191
2015-12-23 19:22:01 r, 16.54m,0000000020Hz,0000022623c,0000000.049s, 006.4C,00002191
2015-12-23 19:32:01 r, 16.42m,0000000022Hz,0000020427c,0000000.044s, 006.4C,00002191
2015-12-23 19:42:01 r, 16.35m,0000000024Hz,0000019121c,0000000.041s, 006.4C,00002191
2015-12-23 19:52:01 r, 16.29m,0000000025Hz,0000017984c,0000000.039s, 006.4C,00002191
2015-12-23 20:02:01 r, 16.29m,0000000026Hz,0000018074c,0000000.039s, 006.1C,00002191
2015-12-23 20:12:01 r, 16.23m,0000000027Hz,0000017088c,0000000.037s, 006.1C,00002191
2015-12-23 20:22:01 r, 16.20m,0000000028Hz,0000016565c,0000000.036s, 006.1C,00002191
2015-12-23 20:32:03 r, 16.14m,0000000030Hz,0000015700c,0000000.034s, 006.1C,00002191
2015-12-23 20:42:01 r, 16.16m,0000000029Hz,0000015888c,0000000.034s, 006.1C,00002191
2015-12-23 20:52:01 r, 16.08m,0000000031Hz,0000014793c,0000000.032s, 006.1C,00002191
2015-12-23 21:02:01 r, 16.04m,0000000033Hz,0000014229c,0000000.031s, 005.8C,00002191
2015-12-23 21:12:01 r, 15.99m,0000000034Hz,0000013583c,0000000.029s, 005.8C,00002191
2015-12-23 21:22:01 r, 15.95m,0000000035Hz,0000013237c,0000000.029s, 005.4C,00002191
2015-12-23 21:32:01 r, 15.92m,0000000036Hz,0000012790c,0000000.028s, 005.4C,00002191
2015-12-23 21:42:01 r, 15.83m,0000000039Hz,0000011754c,0000000.026s, 005.1C,00002191
2015-12-23 21:52:01 r, 15.85m,0000000039Hz,0000012020c,0000000.026s, 005.4C,00002191
2015-12-23 22:02:02 r, 15.84m,0000000039Hz,0000011938c,0000000.026s, 005.1C,00002191
2015-12-23 22:12:01 r, 15.81m,0000000040Hz,0000011574c,0000000.025s, 005.1C,00002191
2015-12-23 22:22:01 r, 15.74m,0000000043Hz,0000010902c,0000000.024s, 005.1C,00002191
2015-12-23 22:32:01 r, 15.81m,0000000040Hz,0000011560c,0000000.025s, 005.1C,00002191
2015-12-23 22:42:01 r, 15.62m,0000000048Hz,0000009765c,0000000.021s, 005.1C,00002191
2015-12-23 22:52:01 r, 15.70m,0000000044Hz,0000010460c,0000000.023s, 005.1C,00002191
2015-12-23 23:02:01 r, 15.70m,0000000044Hz,0000010488c,0000000.023s, 004.8C,00002191
2015-12-23 23:12:01 r, 15.62m,0000000046Hz,0000009732c,0000000.021s, 004.8C,00002191
2015-12-23 23:22:01 r, 15.55m,0000000051Hz,0000009122c,0000000.020s, 004.8C,00002191
2015-12-23 23:32:01 r, 15.47m,0000000056Hz,0000008480c,0000000.018s, 004.5C,00002191
2015-12-23 23:42:01 r, 15.56m,0000000050Hz,0000009206c,0000000.020s, 004.1C,00002191
2015-12-23 23:52:01 r, 15.74m,0000000043Hz,0000010934c,0000000.024s, 003.8C,00002191
